Notices

What's New in latest Release from April 7th, 2021:

- Updated Glossary, including Speed of Maximum Gust, and Total Hourly Precipitation

- Updated national and regional climate services offices contacts and prices information

- Addition of station inventory lists for 1981-2010, 1971-2000, and 1961-1990 Normals.

If you haven't already, please take our survey and provide feedback about our website: https://eccc.sondage-survey.ca/f/LanguageSelection.aspx?s=442ca660-fcf1-47c0-95a9-59707d6fd709

Hourly Data Report for October 30, 2017

VICTORIA UNIVERSITY CS
BRITISH COLUMBIA

48°27'25.200" N
123°18'16.600" W
60.10 m
1018598
71783
WYJ

Download Data

Hourly Data (October 2017)
Hourly Data Report for October 30, 2017
TIME
LST
Temp Definition
°C
Dew Point Definition
°C
Rel Hum Definition
%
Precip. Amount Definition
mm

Wind Dir Definition
10's deg

Wind Spd Definition
km/h
Visibility Definition
km
Stn Press Definition
kPa
Hmdx Definition


Wind Chill Definition


Weather Definition


00:00 13.6 -0.7 37 0.0 1 11   101.48     LegendNANA
01:00 12.5 0.1 43 0.0 34 11   101.51     LegendNANA
02:00 12.6 -1.0 39 0.0 1 10   101.52     LegendNANA
03:00 12.5 -1.1 39 0.0 3 9   101.51     LegendNANA
04:00 11.6 -0.4 44 0.0 3 7   101.51     LegendNANA
05:00 11.2 -1.1 42 0.0 36 9   101.54     LegendNANA
06:00 11.9 -1.5 40 0.0 1 14   101.56     LegendNANA
07:00 11.6 -1.4 40 0.0 1 14   101.58     LegendNANA
08:00 11.7 -0.8 42 0.0 1 15   101.63     LegendNANA
09:00 12.3 0.5 44 0.0 36 13   101.65     LegendNANA
10:00 13.1 -0.2 40 0.0 36 11   101.66     LegendNANA
11:00 13.8 -0.2 38 0.0 36 12   101.65     LegendNANA
12:00 14.2 -0.5 37 0.0 2 15   101.62     LegendNANA
13:00 14.6 0.5 38 0.0 1 9   101.59     LegendNANA
14:00 14.2 1.0 40 0.0 2 9   101.52     LegendNANA
15:00 13.9 1.8 44 0.0 2 9   101.46     LegendNANA
16:00 12.7 1.5 47 0.0 1 6   101.46     LegendNANA
17:00 9.3 2.1 61 0.0 35 4   101.42     LegendNANA
18:00 6.9 2.6 74 0.0 32 5   101.43     LegendNANA
19:00 6.6 2.9 77 0.0 26 3   101.42     LegendNANA
20:00 5.7 2.5 80 0.0 26 3   101.42     LegendNANA
21:00 5.1 2.1 81 0.0 33 5   101.43     LegendNANA
22:00 4.5 2.5 87 0.0 32 2   101.37     LegendNANA
23:00 4.5 2.8 89 0.0 1 1   101.37     LegendNANA

Notes on Data Quality.

Legend

  • E = Estimated
  • M = Missing
  • NA = Not Available*
  • [empty] = Indicates an unobserved value
Date modified: